DLH8C LSZH-EDDF

Flight info

Callsign DLH8C
Flight time 0h 46m
Altitude 20000
Route DEGES Z1 SUDEN T164 KOVAN T163 SPESA SPESA5C
Aircraft A320/M-SDE3FGHIRWY/LB1

Departure

Time 2026-05-01 12:53
Airport Zürich Airport (LSZH)

Arrival

Time 2026-05-01 13:40
Airport Frankfurt Main Airport (EDDF)
Time Latitude Longitude Altitude Speed Heading
2026-05-01 12:44 47.45410 8.56001 1397 ft 0 kts 186°
2026-05-01 12:44 47.45414 8.56002 1397 ft 3 kts 186°
2026-05-01 12:45 47.45463 8.56009 1406 ft 4 kts 168°
2026-05-01 12:45 47.45484 8.55992 1401 ft 4 kts 122°
2026-05-01 12:45 47.45493 8.55957 1402 ft 3 kts 97°
2026-05-01 12:46 47.45493 8.55953 1402 ft 0 kts 96°
2026-05-01 12:48 47.45491 8.55988 1406 ft 8 kts 96°
2026-05-01 12:49 47.45485 8.56069 1397 ft 7 kts 96°
2026-05-01 12:49 47.45481 8.56131 1397 ft 5 kts 96°
2026-05-01 12:49 47.45478 8.56180 1398 ft 6 kts 96°
2026-05-01 12:49 47.45508 8.56267 1401 ft 13 kts 51°
2026-05-01 12:50 47.45571 8.56384 1397 ft 15 kts 51°
2026-05-01 12:50 47.45594 8.56484 1397 ft 11 kts 94°
2026-05-01 12:50 47.45586 8.56600 1397 ft 12 kts 96°
2026-05-01 12:50 47.45577 8.56727 1404 ft 13 kts 96°
2026-05-01 12:51 47.45567 8.56866 1397 ft 14 kts 96°
2026-05-01 12:51 47.45567 8.56977 1398 ft 7 kts 68°
2026-05-01 12:51 47.45591 8.57015 1404 ft 5 kts 34°
2026-05-01 12:52 47.45646 8.57026 1398 ft 7 kts
2026-05-01 12:52 47.45662 8.57000 1400 ft 0 kts 275°
2026-05-01 12:52 47.45672 8.56860 1398 ft 48 kts 276°
2026-05-01 12:53 47.45840 8.54528 1463 ft 161 kts 276°
2026-05-01 12:53 47.45959 8.52895 2144 ft 160 kts 276°
2026-05-01 12:53 47.46074 8.51266 2891 ft 159 kts 277°
2026-05-01 12:54 47.46188 8.49652 3567 ft 152 kts 277°
2026-05-01 12:54 47.45611 8.46730 4496 ft 157 kts 232°
2026-05-01 12:54 47.45031 8.45311 4810 ft 171 kts 243°
2026-05-01 12:55 47.43755 8.41650 5291 ft 220 kts 244°
2026-05-01 12:55 47.43048 8.39604 5861 ft 227 kts 243°
2026-05-01 12:55 47.42175 8.37665 6625 ft 229 kts 225°
2026-05-01 12:56 47.40828 8.36420 7318 ft 232 kts 197°
2026-05-01 12:56 47.39228 8.36289 7975 ft 234 kts 166°
2026-05-01 12:56 47.37764 8.37341 8397 ft 236 kts 137°
2026-05-01 12:56 47.36880 8.39338 8649 ft 237 kts 107°
2026-05-01 12:57 47.36761 8.41860 8924 ft 262 kts 83°
2026-05-01 12:57 47.37261 8.47519 10188 ft 286 kts 84°
2026-05-01 12:57 47.37520 8.50466 10749 ft 299 kts 84°
2026-05-01 12:58 47.37795 8.53633 10969 ft 322 kts 84°
2026-05-01 12:58 47.38073 8.57036 11163 ft 345 kts 85°
2026-05-01 12:58 47.38298 8.60627 11616 ft 357 kts 86°
2026-05-01 12:59 47.38659 8.68021 13000 ft 364 kts 87°
2026-05-01 12:59 47.38835 8.71766 13721 ft 367 kts 87°
2026-05-01 12:59 47.39215 8.79347 15034 ft 373 kts 86°
2026-05-01 13:00 47.39606 8.86989 16228 ft 379 kts 85°
2026-05-01 13:00 47.39804 8.90893 16827 ft 383 kts 85°
2026-05-01 13:01 47.40200 8.98806 17995 ft 390 kts 85°
2026-05-01 13:01 47.40401 9.02820 18571 ft 393 kts 85°
2026-05-01 13:01 47.40802 9.10939 19593 ft 400 kts 85°
2026-05-01 13:02 47.41007 9.15060 20084 ft 403 kts 84°
2026-05-01 13:07 47.92176 9.46319 24305 ft 443 kts
2026-05-01 13:07 47.95253 9.46274 24306 ft 443 kts
2026-05-01 13:07 47.98334 9.46238 24303 ft 443 kts
2026-05-01 13:08 48.01412 9.46215 24301 ft 442 kts
2026-05-01 13:08 48.04491 9.46201 24301 ft 442 kts
2026-05-01 13:08 48.07567 9.46196 24300 ft 442 kts
2026-05-01 13:08 48.10639 9.46197 24303 ft 442 kts
2026-05-01 13:09 48.13712 9.46200 24304 ft 441 kts
2026-05-01 13:09 48.16779 9.46194 24301 ft 441 kts
2026-05-01 13:09 48.19859 9.46191 24304 ft 441 kts
2026-05-01 13:09 48.22926 9.46196 24303 ft 441 kts
2026-05-01 13:10 48.26002 9.46203 24303 ft 441 kts
2026-05-01 13:10 48.29069 9.46209 24292 ft 441 kts
2026-05-01 13:10 48.32146 9.46213 24287 ft 442 kts
2026-05-01 13:10 48.35226 9.46215 24285 ft 443 kts
2026-05-01 13:11 48.38304 9.46218 24282 ft 443 kts
2026-05-01 13:11 48.41392 9.46219 24279 ft 443 kts
2026-05-01 13:11 48.44483 9.46212 24280 ft 444 kts
2026-05-01 13:11 48.47551 9.45722 24280 ft 446 kts 350°
2026-05-01 13:12 48.50523 9.44332 24281 ft 448 kts 338°
2026-05-01 13:12 48.53267 9.42095 24282 ft 450 kts 327°
2026-05-01 13:12 48.55685 9.39091 24280 ft 452 kts 316°
2026-05-01 13:12 48.57689 9.35422 24281 ft 455 kts 305°
2026-05-01 13:13 48.59490 9.31496 24280 ft 454 kts 309°
2026-05-01 13:13 48.61606 9.27973 24281 ft 453 kts 319°
2026-05-01 13:13 48.64025 9.25030 24281 ft 450 kts 328°
2026-05-01 13:13 48.66769 9.22664 24283 ft 448 kts 337°
2026-05-01 13:14 48.69621 9.20777 24283 ft 448 kts 338°
2026-05-01 13:14 48.72477 9.18901 24278 ft 448 kts 338°
2026-05-01 13:14 48.75336 9.17019 24271 ft 448 kts 338°
2026-05-01 13:14 48.78195 9.15130 24274 ft 448 kts 338°
2026-05-01 13:15 48.81011 9.13257 24273 ft 448 kts 337°
2026-05-01 13:15 48.83902 9.11334 24273 ft 448 kts 339°
2026-05-01 13:15 48.86816 9.09863 24272 ft 447 kts 347°
2026-05-01 13:15 48.89877 9.09098 24275 ft 445 kts 357°
2026-05-01 13:16 48.92979 9.09090 24282 ft 444 kts
2026-05-01 13:16 48.96049 9.09538 24279 ft 444 kts
2026-05-01 13:16 48.99127 9.09993 24282 ft 444 kts
2026-05-01 13:17 49.08361 9.11317 24288 ft 445 kts
2026-05-01 13:17 49.11446 9.11755 24287 ft 445 kts
2026-05-01 13:18 49.17606 9.12634 24292 ft 444 kts
2026-05-01 13:18 49.20686 9.13077 24291 ft 445 kts
2026-05-01 13:18 49.23768 9.13517 24289 ft 445 kts
2026-05-01 13:18 49.26851 9.13956 24297 ft 445 kts
2026-05-01 13:19 49.28891 9.14245 24296 ft 445 kts
2026-05-01 13:19 49.31975 9.14681 24299 ft 445 kts
2026-05-01 13:19 49.38146 9.15554 24303 ft 445 kts
2026-05-01 13:20 49.41235 9.15996 24299 ft 446 kts
2026-05-01 13:20 49.44329 9.16440 24310 ft 446 kts
2026-05-01 13:20 49.47422 9.16882 24313 ft 446 kts
2026-05-01 13:21 49.53505 9.17754 24062 ft 424 kts
2026-05-01 13:21 49.56406 9.18177 23627 ft 414 kts
2026-05-01 13:21 49.59266 9.18599 22733 ft 416 kts
2026-05-01 13:21 49.62152 9.19280 21647 ft 422 kts 16°
2026-05-01 13:22 49.64931 9.20716 20854 ft 419 kts 26°
2026-05-01 13:22 49.67481 9.22845 20156 ft 415 kts 35°
2026-05-01 13:22 49.69732 9.25588 19513 ft 410 kts 45°
2026-05-01 13:22 49.71913 9.28431 18870 ft 410 kts 37°
2026-05-01 13:23 49.74375 9.30539 18222 ft 411 kts 26°
2026-05-01 13:23 49.77089 9.31911 17602 ft 411 kts 14°
2026-05-01 13:23 49.79920 9.32514 16906 ft 414 kts
2026-05-01 13:23 49.82769 9.31898 16276 ft 416 kts 345°
2026-05-01 13:24 49.85362 9.29943 15629 ft 417 kts 325°
2026-05-01 13:24 49.87383 9.26718 14968 ft 418 kts 303°
2026-05-01 13:24 49.88584 9.22636 14358 ft 416 kts 287°
2026-05-01 13:25 49.90220 9.14046 12979 ft 413 kts 285°
2026-05-01 13:25 49.91017 9.09791 12379 ft 409 kts 285°
2026-05-01 13:25 49.91812 9.05558 11663 ft 407 kts 285°
2026-05-01 13:25 49.92604 9.01368 11181 ft 404 kts 285°
2026-05-01 13:26 49.93394 8.97228 10735 ft 396 kts 285°
2026-05-01 13:26 49.94167 8.93202 10477 ft 382 kts 285°
2026-05-01 13:26 49.94899 8.89384 10350 ft 353 kts 285°
2026-05-01 13:26 49.95566 8.85903 10343 ft 321 kts 285°
2026-05-01 13:27 49.96178 8.82685 10297 ft 305 kts 284°
2026-05-01 13:27 49.96769 8.79553 9791 ft 298 kts 284°
2026-05-01 13:27 49.97773 8.73405 8765 ft 290 kts 272°
2026-05-01 13:28 49.97204 8.67366 8027 ft 280 kts 246°
2026-05-01 13:28 49.96529 8.64574 7643 ft 279 kts 246°
2026-05-01 13:29 49.95178 8.58951 6904 ft 277 kts 246°
2026-05-01 13:29 49.93834 8.53374 6488 ft 276 kts 246°
2026-05-01 13:30 49.91148 8.42248 5803 ft 273 kts 246°
2026-05-01 13:31 49.89818 8.36764 5302 ft 266 kts 246°
2026-05-01 13:31 49.87997 8.29198 4908 ft 235 kts 246°
2026-05-01 13:32 49.86885 8.24566 4495 ft 219 kts 246°
2026-05-01 13:33 49.88055 8.18699 4017 ft 212 kts 343°
2026-05-01 13:33 49.90743 8.19573 3965 ft 205 kts 31°
2026-05-01 13:34 49.93318 8.21460 3976 ft 206 kts 28°
2026-05-01 13:34 49.95563 8.23994 3979 ft 197 kts 63°
2026-05-01 13:35 49.96543 8.27671 3762 ft 176 kts 73°
2026-05-01 13:35 49.96958 8.29373 3545 ft 161 kts 73°
2026-05-01 13:35 49.97698 8.32425 3143 ft 143 kts 73°
2026-05-01 13:36 49.98044 8.33857 2965 ft 139 kts 73°
2026-05-01 13:36 49.98385 8.35269 2789 ft 141 kts 74°
2026-05-01 13:36 49.99058 8.38059 2419 ft 139 kts 74°
2026-05-01 13:37 49.99396 8.39460 2229 ft 137 kts 73°
2026-05-01 13:37 49.99728 8.40835 2048 ft 138 kts 72°
2026-05-01 13:37 50.00061 8.42216 1871 ft 137 kts 72°
2026-05-01 13:37 50.00395 8.43605 1684 ft 136 kts 73°
2026-05-01 13:38 50.01050 8.46325 1329 ft 136 kts 72°
2026-05-01 13:38 50.01382 8.47706 1148 ft 137 kts 73°
2026-05-01 13:38 50.01710 8.49072 973 ft 135 kts 73°
2026-05-01 13:39 50.02041 8.50449 784 ft 138 kts 72°
2026-05-01 13:39 50.02371 8.51819 620 ft 134 kts 73°
2026-05-01 13:39 50.02693 8.53176 420 ft 135 kts 71°
2026-05-01 13:39 50.03006 8.54475 333 ft 111 kts 70°
2026-05-01 13:40 50.03217 8.55350 343 ft 62 kts 69°
2026-05-01 13:40 50.03313 8.55669 349 ft 20 kts 49°
2026-05-01 13:40 50.03407 8.55825 347 ft 20 kts 36°
2026-05-01 13:40 50.03450 8.55876 352 ft 3 kts 38°
2026-05-01 13:41 50.03474 8.55906 345 ft 8 kts 39°
2026-05-01 13:41 50.03520 8.55965 347 ft 8 kts 39°
2026-05-01 13:41 50.03559 8.56016 353 ft 8 kts 40°
2026-05-01 13:41 50.03613 8.56086 351 ft 11 kts 40°
2026-05-01 13:42 50.03660 8.56183 358 ft 13 kts 63°
2026-05-01 13:42 50.03702 8.56348 355 ft 19 kts 69°
2026-05-01 13:42 50.03754 8.56566 355 ft 22 kts 69°
2026-05-01 13:42 50.03808 8.56797 353 ft 23 kts 70°
2026-05-01 13:43 50.03863 8.57027 357 ft 22 kts 69°
2026-05-01 13:43 50.03916 8.57247 362 ft 22 kts 69°
2026-05-01 13:43 50.03969 8.57469 368 ft 22 kts 70°
2026-05-01 13:43 50.04024 8.57706 369 ft 24 kts 69°
2026-05-01 13:44 50.04065 8.57879 367 ft 14 kts 67°
2026-05-01 13:44 50.04103 8.58026 372 ft 15 kts 69°
2026-05-01 13:44 50.04136 8.58122 370 ft 10 kts 43°
2026-05-01 13:44 50.04198 8.58177 370 ft 11 kts 27°
2026-05-01 13:45 50.04269 8.58208 366 ft 10 kts 357°
2026-05-01 13:45 50.04333 8.58176 367 ft 8 kts 339°
2026-05-01 13:45 50.04386 8.58145 371 ft 8 kts 340°
2026-05-01 13:45 50.04439 8.58116 368 ft 9 kts 340°
2026-05-01 13:46 50.04512 8.58074 369 ft 12 kts 340°
2026-05-01 13:46 50.04611 8.58016 361 ft 18 kts 339°
2026-05-01 13:46 50.04729 8.57947 363 ft 18 kts 340°
2026-05-01 13:46 50.04830 8.57877 361 ft 15 kts 318°
2026-05-01 13:47 50.04867 8.57769 365 ft 8 kts 300°
2026-05-01 13:47 50.04913 8.57767 361 ft 7 kts 21°
2026-05-01 13:47 50.04940 8.57783 359 ft 0 kts 21°
2026-05-01 13:47 50.04945 8.57786 358 ft 0 kts 21°